Dewpoint
75 76 75 75 75 73 67 65 55 56 51 49 50 51 51 58 60 57 57 58 56 60 61 61 60 59 59 58 59 61 63 57 57 53 52 59 71 71 73 73 74 73 72 73 74 75 75 75 75 75 75 75 75 75 75 75 75 75 75 75 75 75 75 76 76 76 76 76 76 76 76 76 77 77 77 77 77 77 77 77 77 77 77 77 77 77 77 77 77 77 76 76 76 76 76 75 75
74 75 75 75 71 68 63 63 53 51 50 47 49 55 52 57 56 56 56 58 58 59 61 60 61 63 63 63 63 62 61 65 65 64 67 70 71 72 73 73 74 73 74 74 74 74 73 74 74 75 75 76 75 76 75 75 75 75 75 75 75 75 75 76 76 75 76 76 76 76 76 76 77 77 77 77 77 77 77 77 77 77 77 77 76 76 76 76 77 77 76 76 76 76 75 75 75
74 74 73 72 69 67 64 60 53 48 46 45 49 53 56 55 55 56 58 59 60 61 61 61 62 63 62 62 60 60 57 67 67 67 68 70 69 70 73 73 74 74 74 74 74 73 73 74 74 75 75 75 75 75 75 75 75 76 76 75 75 75 75 76 76 76 75 75 75 75 75 76 76 76 76 77 77 77 77 77 77 77 76 76 76 76 76 76 77 77 76 76 76 76 75 75 75
75 76 71 68 64 64 58 55 52 49 45 46 47 53 56 55 56 58 60 60 61 61 61 60 59 62 61 60 61 64 64 64 68 67 67 69 68 71 73 74 75 75 74 74 73 74 74 74 75 75 75 75 75 75 75 75 75 75 75 75 74 74 75 76 76 76 76 76 76 76 76 76 76 76 76 77 77 76 76 76 76 76 76 76 76 76 76 76 76 76 76 76 76 75 75 75 75
75 75 72 68 62 58 57 54 53 50 47 49 48 52 57 59 57 58 58 60 61 60 60 61 61 62 64 63 65 59 60 67 68 69 68 70 72 73 73 74 74 74 74 74 74 74 74 74 75 75 75 75 75 75 75 76 75 75 75 75 75 75 75 76 76 76 76 76 76 76 76 76 76 76 76 76 76 76 76 76 76 76 75 75 76 76 76 76 76 76 76 76 75 75 75 75 75
73 72 73 70 63 63 60 52 50 51 52 53 52 52 56 58 58 57 57 59 60 61 62 62 60 61 62 64 66 63 65 63 67 69 69 70 72 73 74 74 74 74 74 74 73 74 74 75 75 74 75 74 75 75 75 75 75 75 75 75 75 75 76 76 76 75 76 76 76 76 76 76 75 76 76 76 76 76 76 75 75 75 75 76 76 76 76 76 76 76 76 76 75 75 75 75 75
70 67 67 65 63 65 54 52 51 51 54 57 54 56 58 60 59 57 58 58 59 60 61 61 62 62 61 64 65 67 68 68 68 69 70 71 73 73 74 74 74 74 73 73 73 73 73 74 74 75 74 74 74 74 74 75 76 76 76 75 75 76 76 76 76 76 76 75 76 76 75 75 76 76 76 76 75 76 75 75 75 75 76 75 76 76 76 76 76 76 76 75 75 75 75 75 75
74 67 66 59 56 57 54 53 52 53 53 58 59 57 59 61 61 58 58 58 57 59 60 61 62 61 61 66 61 67 69 70 70 71 72 72 73 73 73 74 74 74 74 73 73 73 73 75 75 75 75 74 74 74 73 74 75 75 76 76 76 76 76 76 76 76 75 76 75 75 75 75 75 76 76 76 75 75 75 75 76 76 76 76 76 76 76 75 76 76 75 75 75 75 75 75 75
72 68 65 57 53 55 53 52 53 57 58 59 58 62 63 62 60 59 57 58 59 60 60 61 62 58 62 63 63 67 68 70 71 72 72 72 73 73 73 73 73 74 74 74 73 73 73 75 75 75 75 74 74 74 74 74 74 75 76 75 76 76 76 76 76 76 75 75 75 75 75 75 75 75 76 76 75 75 75 75 76 76 76 76 76 76 75 75 76 75 75 75 75 75 75 74 75
68 65 58 56 55 51 53 51 51 53 56 58 58 58 61 61 60 60 58 58 58 60 61 62 62 60 63 62 64 66 68 71 71 71 72 72 72 73 73 73 74 74 74 74 73 73 73 74 75 75 74 74 75 75 74 74 75 75 75 75 76 76 75 75 76 76 76 76 75 75 75 75 75 75 76 76 75 75 75 75 76 76 76 76 76 76 75 75 76 75 75 75 75 75 75 75 75
62 64 61 54 51 51 49 51 54 56 56 58 59 61 61 62 59 57 59 58 60 60 62 62 62 62 62 62 64 68 70 71 71 70 72 72 72 72 73 74 74 74 74 74 74 73 73 74 75 75 75 75 74 75 75 75 75 76 76 76 76 76 76 75 75 76 75 76 75 75 75 75 75 76 76 76 75 75 76 76 76 76 76 76 76 76 75 75 75 75 75 75 75 75 75 75 75
60 59 58 51 51 51 52 52 53 54 58 58 55 60 61 60 60 57 58 58 60 61 61 63 61 62 62 62 64 68 69 70 70 71 71 72 72 73 74 74 74 74 74 74 74 74 74 74 74 75 74 75 75 76 76 76 76 76 76 75 75 76 76 76 76 75 75 75 75 75 75 75 75 76 76 76 75 75 76 76 76 76 76 76 76 76 75 75 75 75 75 75 75 75 75 75 76
62 59 55 52 53 57 58 54 52 56 55 55 56 59 61 59 58 58 58 59 60 59 60 62 63 62 60 62 66 67 68 69 70 71 71 72 73 73 74 74 74 74 74 74 74 74 74 74 75 75 75 75 76 76 76 76 75 76 75 75 75 76 76 76 75 75 75 75 75 75 75 75 75 76 76 75 75 76 76 75 76 76 76 76 76 76 75 75 75 75 75 75 75 75 75 75 76
62 60 56 52 56 58 58 57 55 52 52 55 60 62 62 60 59 59 59 59 59 59 61 63 62 63 62 64 66 66 67 69 70 71 72 73 73 73 74 74 74 74 74 74 74 74 74 74 75 74 75 75 74 76 76 76 75 76 76 75 75 76 76 76 76 76 76 76 75 75 75 75 76 76 76 75 75 75 75 75 76 76 76 76 76 76 75 76 75 76 75 75 75 75 75 75 76
62 62 56 53 52 56 56 55 54 52 51 58 60 60 61 64 60 60 59 58 59 62 62 63 63 60 60 62 62 65 67 69 70 71 72 73 73 73 73 73 73 73 73 73 74 74 74 74 74 74 75 74 74 74 75 76 76 76 76 75 75 76 76 75 75 76 76 76 75 75 75 75 75 76 75 75 75 75 75 75 76 76 76 76 75 76 75 76 76 76 75 75 75 75 75 76 76
65 61 56 52 51 52 54 56 57 53 52 59 60 62 60 59 61 60 62 59 60 62 62 60 62 59 61 62 63 66 68 69 70 71 72 72 73 73 73 72 73 73 73 73 73 74 74 74 74 74 73 74 74 74 75 75 76 76 76 75 75 76 76 75 76 76 76 76 75 75 75 75 75 75 75 75 75 75 75 75 76 75 76 75 75 75 75 75 76 75 74 75 75 75 76 76 76
66 61 54 50 50 53 53 58 54 50 54 59 62 62 59 59 60 61 62 61 60 60 61 61 61 63 62 63 66 67 69 70 71 71 72 71 72 72 72 72 72 72 73 73 73 74 74 74 73 73 74 74 74 74 74 74 75 76 76 75 76 76 76 75 75 76 76 75 76 75 76 76 75 76 75 76 75 76 75 75 75 75 75 75 75 75 75 75 75 75 74 75 75 76 76 76 76
63 56 52 50 51 54 57 60 57 58 57 58 62 62 60 56 59 61 60 60 60 60 60 62 63 62 63 65 67 68 69 70 70 70 70 70 70 70 71 71 71 71 72 73 73 74 74 73 73 73 73 73 74 74 74 75 76 76 75 75 76 76 75 74 75 76 76 75 75 76 75 76 75 75 75 76 76 76 76 75 75 75 75 75 74 75 75 75 74 74 75 75 76 76 76 76 77
59 55 53 51 54 58 61 64 61 58 57 61 62 62 61 59 59 60 58 58 58 59 61 62 62 63 64 66 67 68 69 69 69 69 69 69 69 69 69 70 70 71 72 72 73 73 74 73 73 73 73 73 74 74 74 75 74 74 74 75 76 76 76 76 76 76 75 74 75 75 76 76 75 75 76 76 77 76 76 76 75 75 75 75 74 74 74 74 74 75 75 76 76 76 77 76 75
62 56 53 54 58 61 64 64 62 61 61 61 61 61 62 61 59 58 58 58 58 59 60 61 62 62 64 65 67 68 69 69 69 69 69 69 69 69 69 69 70 70 71 72 73 73 73 73 73 73 73 73 73 73 74 74 74 74 74 74 75 75 75 75 75 75 74 74 74 75 75 75 75 75 76 75 75 76 76 75 75 75 75 75 75 74 75 75 75 75 76 76 77 76 76 75 75
60 57 54 55 61 59 62 64 64 64 63 62 62 62 61 60 63 58 58 57 57 58 61 60 62 63 64 65 66 67 68 68 68 68 68 68 69 69 69 69 69 70 71 72 73 73 73 73 73 73 73 73 73 74 73 73 73 74 74 74 74 74 74 74 74 74 74 74 74 75 75 75 74 75 75 75 75 75 75 75 75 75 76 75 76 75 75 75 76 75 75 76 75 75 75 75 75
60 57 58 60 60 59 63 64 65 66 66 63 62 61 61 63 60 57 58 56 56 57 60 61 63 63 64 65 66 67 67 68 68 68 68 68 68 69 69 69 70 71 72 71 72 72 73 73 73 73 73 73 73 73 73 74 74 73 74 74 74 74 74 74 74 74 74 74 74 75 76 74 74 74 74 74 75 75 75 74 75 75 75 75 76 75 75 75 75 75 75 75 75 75 75 75 75
54 56 61 62 62 61 63 63 65 65 64 62 61 62 63 62 57 59 59 57 58 59 60 62 64 64 65 66 66 66 67 67 67 67 68 68 68 69 69 69 69 70 71 71 72 72 73 73 73 73 73 73 73 73 74 74 73 73 74 74 74 74 74 74 73 74 74 74 74 75 75 74 74 74 74 74 74 75 74 74 75 75 75 75 75 75 75 75 75 75 75 75 74 75 75 75 75
57 55 61 62 64 64 65 64 65 64 63 61 64 65 61 60 55 59 58 58 59 60 62 63 64 65 65 65 66 66 66 67 67 67 68 68 68 69 69 69 70 70 70 71 71 72 73 72 73 73 73 73 73 73 74 73 73 73 74 75 74 75 74 74 73 74 74 74 74 75 75 74 74 73 73 74 74 74 74 75 74 75 75 75 75 75 75 74 74 74 74 74 74 74 74 74 74
59 59 61 62 64 66 65 64 65 65 64 64 65 61 59 62 61 63 60 59 60 61 63 64 65 65 65 65 65 66 66 66 67 67 68 68 68 69 69 69 70 70 70 70 71 72 72 73 73 73 73 73 73 73 74 73 73 73 74 74 73 75 74 73 73 74 74 75 75 75 75 74 73 73 73 74 74 74 74 74 74 74 75 75 75 74 75 75 74 74 74 74 74 74 74 73 73
59 59 62 64 63 66 68 66 65 65 64 66 62 60 62 63 65 61 62 58 61 62 63 64 64 65 65 65 65 66 66 66 66 67 67 67 68 68 69 69 69 70 70 70 71 71 72 73 72 72 73 73 73 74 73 73 73 73 73 74 73 75 73 74 74 74 74 75 75 75 75 74 73 73 73 74 73 74 74 74 74 74 74 74 74 74 74 74 74 74 74 73 73 73 73 72 73
60 62 64 62 64 65 67 64 64 65 64 65 60 59 60 63 57 52 58 60 62 62 63 63 64 64 64 65 65 65 66 66 66 66 67 66 67 68 68 69 69 69 70 70 70 71 72 72 72 73 73 73 73 73 73 73 73 73 73 73 73 74 74 74 74 74 74 75 75 75 75 75 74 73 73 73 74 73 73 73 74 74 74 74 74 74 74 74 74 74 73 73 73 73 72 72 72
60 63 63 63 66 66 66 64 62 63 62 64 60 59 60 61 57 55 58 61 61 61 62 63 63 63 64 64 65 65 65 66 66 66 66 65 66 67 68 68 69 69 70 70 70 71 72 72 72 73 73 73 73 73 74 73 73 73 73 73 73 73 74 74 74 74 75 74 75 75 75 75 75 73 73 73 73 73 73 73 73 73 73 73 74 74 74 74 74 73 73 73 73 73 72 72 72
63 61 57 60 63 63 65 61 62 63 61 65 62 57 55 56 55 57 59 60 61 61 61 62 62 63 63 63 64 64 64 65 66 65 66 65 66 67 67 68 69 69 69 70 70 71 71 72 72 72 73 73 73 73 73 73 73 73 73 73 73 74 74 74 73 74 74 74 74 75 75 75 76 74 73 74 75 73 73 73 73 73 73 73 73 73 73 74 73 73 73 73 73 72 71 71 69
61 61 59 58 60 59 62 64 65 62 62 65 60 49 51 52 57 60 60 59 60 60 61 61 61 62 62 62 63 63 64 64 65 65 65 65 66 67 67 68 69 69 69 70 70 70 71 72 72 72 72 73 73 73 73 73 73 73 74 73 74 74 73 73 74 73 74 74 74 74 74 75 75 75 73 73 74 73 73 73 73 73 73 73 73 73 72 73 72 72 71 71 72 72 71 70 69
57 59 59 54 53 54 61 63 64 61 65 64 57 49 49 52 55 60 61 58 59 59 60 60 60 61 61 61 62 62 63 63 64 65 65 65 65 67 67 67 68 68 69 69 69 70 71 71 72 72 73 73 73 73 73 73 73 73 74 73 74 74 73 73 73 73 73 73 73 73 73 74 75 75 74 73 72 73 72 72 72 72 73 73 72 72 72 72 71 71 71 70 70 70 69 70 70
57 51 49 50 52 52 60 65 62 59 63 63 55 49 50 52 55 58 61 59 59 58 59 60 60 60 60 61 61 61 62 63 63 64 65 65 65 66 67 67 67 68 68 69 69 70 70 71 72 71 72 72 73 73 73 73 73 73 73 74 73 74 74 73 73 72 72 72 73 72 72 73 74 74 74 74 72 72 72 72 72 73 73 73 72 71 72 71 71 71 72 71 70 69 70 68 69
50 50 47 47 51 53 54 63 63 64 63 63 55 50 53 52 57 59 62 59 58 57 57 58 59 59 59 60 60 60 61 61 62 63 64 64 65 65 67 67 67 68 68 68 69 69 70 71 72 71 72 72 73 73 73 73 73 73 73 74 73 73 74 73 73 73 72 72 72 71 71 72 74 74 74 74 74 72 71 71 71 72 73 72 72 72 71 73 72 70 72 73 71 71 69 68 67
47 49 48 50 48 50 49 58 64 64 62 59 61 55 55 53 57 61 62 59 57 56 57 57 57 58 58 59 59 59 60 60 61 62 63 64 64 65 66 68 67 68 68 69 69 69 70 71 71 71 72 72 73 73 73 72 72 72 73 73 74 73 73 73 72 72 72 71 71 71 71 72 73 73 74 74 74 74 73 72 71 71 72 72 72 73 73 74 74 72 72 73 74 72 71 68 65
46 45 46 47 48 49 48 51 57 63 62 59 59 57 56 57 58 60 61 61 57 56 56 56 56 56 56 57 57 58 58 59 60 62 62 63 63 65 65 66 67 67 68 69 69 70 70 71 72 72 72 72 72 73 73 73 72 72 72 72 73 73 73 72 72 72 71 71 71 71 72 72 74 74 75 75 74 74 74 72 71 72 74 74 73 73 73 74 74 72 72 74 75 73 72 70 67
46 47 47 48 44 44 48 52 58 62 60 58 59 57 57 58 58 59 61 60 56 56 56 56 56 55 55 55 55 56 57 57 59 61 62 62 63 64 65 66 66 67 68 69 69 70 70 71 71 72 72 72 72 73 73 73 72 72 71 71 71 72 72 73 72 71 71 71 71 71 72 72 72 75 76 75 73 74 72 72 72 74 75 73 72 71 71 72 71 72 73 74 73 73 72 71 66
45 47 46 46 46 46 50 54 59 62 58 58 58 58 57 58 58 58 60 60 58 56 55 55 55 55 54 54 55 55 55 56 57 58 61 62 62 64 65 65 66 67 68 69 69 69 70 70 71 71 71 72 72 72 72 72 72 71 71 70 70 71 72 72 72 71 70 70 71 71 72 72 73 75 76 75 74 74 74 73 73 73 73 72 71 71 70 72 73 74 76 74 74 70 68 68 69
42 44 43 42 46 42 47 49 58 62 57 55 58 59 58 58 59 59 60 59 57 56 55 55 55 55 54 54 54 54 55 56 56 57 58 61 62 63 64 65 67 66 67 68 69 69 70 70 71 71 71 71 71 71 72 72 72 71 71 70 70 70 71 72 71 71 70 69 71 72 72 73 75 76 77 74 74 73 73 72 72 72 72 72 72 74 74 78 74 73 73 72 72 69 67 67 70
38 40 40 38 37 44 46 52 59 61 57 53 55 57 57 58 59 59 59 59 58 57 56 56 56 55 54 53 54 54 55 55 55 55 57 60 62 63 64 65 66 66 67 68 68 69 70 70 71 71 71 71 71 71 72 72 72 72 71 71 70 70 70 72 71 71 71 69 70 71 72 73 75 76 76 76 73 73 72 72 71 72 73 75 74 73 72 72 73 73 73 70 71 68 71 70 74
32 30 31 28 38 33 31 43 58 59 55 51 54 55 55 56 56 57 58 60 59 58 57 56 57 56 55 54 53 53 54 55 55 55 56 59 61 63 64 65 66 66 67 67 68 69 69 71 71 71 71 71 71 71 72 71 72 72 72 71 71 70 69 71 72 71 69 69 68 69 71 72 74 75 75 75 74 72 71 71 71 73 73 76 71 72 72 72 73 74 72 74 70 66 66 67 74
22 24 27 26 25 35 32 38 56 57 57 54 52 49 46 49 53 54 56 60 60 59 59 58 58 58 57 56 54 54 54 54 55 55 55 58 60 62 63 65 65 66 66 67 68 68 69 70 70 71 71 70 70 72 72 71 72 71 71 71 72 71 71 70 69 69 68 69 68 69 69 72 73 75 75 75 75 72 72 72 72 72 74 75 72 71 72 71 73 74 72 74 70 68 65 68 71
22 23 22 22 22 21 48 54 54 51 51 55 49 38 39 44 49 52 54 58 59 59 57 57 57 57 58 57 56 55 55 55 55 55 55 57 60 61 63 64 65 65 66 67 68 69 69 69 70 71 71 70 70 70 71 71 72 70 70 70 68 68 68 68 67 67 66 65 66 67 69 71 72 74 75 76 75 74 72 73 73 73 74 76 75 72 73 74 75 74 73 72 72 69 67 69 67
24 22 22 22 21 31 54 54 47 45 41 47 50 38 36 41 46 50 53 56 56 58 58 57 57 57 57 57 57 56 55 54 55 55 55 56 59 60 62 63 64 65 66 67 67 68 69 69 70 70 70 70 70 70 71 72 71 70 70 69 69 68 68 68 68 67 66 65 67 67 69 71 72 73 74 75 76 76 73 74 74 74 74 75 77 75 75 74 74 74 72 72 73 74 70 69 68
22 26 22 23 23 38 49 51 41 44 51 48 49 42 37 38 40 45 53 55 55 56 57 58 57 57 57 57 57 57 56 55 55 55 55 56 57 59 60 62 64 65 65 66 67 68 68 69 70 70 70 71 70 71 71 71 70 70 70 69 69 69 68 68 67 66 65 67 67 67 68 70 72 73 74 74 76 76 75 74 74 74 73 74 76 75 74 74 74 75 75 74 75 75 71 69 69
22 24 24 21 23 33 47 49 46 45 40 37 44 46 41 41 42 49 55 53 54 55 56 57 57 57 57 57 57 57 56 56 56 55 55 56 57 58 60 61 63 64 65 66 66 67 68 69 70 70 70 71 70 71 71 71 71 70 70 69 69 70 69 68 69 68 66 69 67 68 69 70 72 73 73 73 74 76 77 74 74 74 73 73 76 76 75 74 73 73 74 72 74 76 72 72 72
22 25 30 36 45 49 50 47 40 38 38 36 43 46 38 38 40 48 53 52 52 53 55 57 57 57 57 57 56 57 56 57 56 56 56 56 57 58 59 60 62 63 65 66 66 67 67 68 69 70 70 70 70 71 71 71 71 71 70 69 69 69 70 69 69 67 66 69 67 68 69 71 72 72 73 73 73 74 76 76 74 73 73 72 76 75 74 73 72 72 72 71 72 75 75 75 71
20 21 32 36 38 40 42 40 40 36 33 35 40 46 39 31 37 47 49 51 52 51 54 56 57 58 57 57 56 56 56 56 57 56 56 57 57 58 59 59 61 63 64 65 65 66 67 68 69 69 70 70 71 71 71 71 71 71 70 70 69 69 69 68 68 67 66 68 68 68 69 70 72 72 72 73 72 73 75 76 74 73 73 74 76 75 74 72 71 71 70 72 73 72 73 75 75
23 23 22 27 31 32 33 36 39 33 31 34 37 45 38 32 34 37 50 52 54 52 52 54 56 57 57 57 57 56 56 56 56 57 56 57 58 58 59 60 60 62 63 64 65 65 67 67 68 69 70 70 70 70 71 71 70 70 70 70 69 69 69 68 68 67 66 66 67 68 70 70 72 72 72 73 73 73 74 75 75 74 74 74 74 75 74 73 72 72 72 72 72 73 73 75 73
20 24 22 17 22 29 24 30 32 31 29 33 39 43 41 38 35 35 39 44 49 53 53 53 54 56 57 57 57 57 56 56 57 57 57 57 58 58 58 59 61 62 63 64 64 65 66 67 68 68 69 70 70 70 70 71 71 70 70 70 70 70 69 69 68 68 66 66 67 67 69 70 71 72 72 72 72 73 74 74 74 74 74 75 75 75 74 74 73 72 72 71 72 72 72 73 73
18 18 21 18 17 16 17 24 30 26 26 30 38 42 36 39 35 38 37 38 43 50 54 54 54 55 56 57 57 57 57 56 57 57 57 58 58 58 59 60 61 62 62 63 64 65 66 66 67 68 69 70 70 70 69 71 71 71 71 70 69 70 69 69 68 67 66 67 67 67 68 69 70 71 71 72 72 73 74 74 74 74 74 74 75 74 74 73 73 72 72 72 71 73 73 73 73
16 19 17 20 21 18 16 22 19 21 26 29 36 33 31 30 34 43 46 48 49 48 52 55 56 56 57 58 58 57 57 56 56 58 58 58 59 59 59 60 61 61 62 63 63 65 66 66 67 70 69 69 70 70 69 69 69 71 71 70 70 70 69 69 69 68 67 66 67 67 68 68 69 70 71 72 73 73 73 74 74 74 74 74 75 74 73 73 74 74 74 73 73 71 71 72 71
19 20 18 18 18 27 16 22 25 26 24 30 32 30 34 33 40 49 52 53 54 57 55 57 57 57 57 57 58 57 56 56 57 57 58 59 59 59 60 61 60 61 63 63 63 65 65 66 68 69 69 70 70 70 70 69 69 69 71 71 70 70 71 69 70 71 69 67 67 67 68 69 69 70 71 72 72 73 73 73 74 74 74 74 74 74 74 73 73 73 73 73 72 72 72 71 71
22 17 17 17 21 22 33 39 38 29 20 23 35 34 35 42 38 45 51 52 52 54 55 55 55 57 57 57 57 57 57 56 57 57 58 59 59 59 59 60 61 62 63 64 64 65 66 67 69 69 69 70 70 70 70 69 69 69 70 71 70 70 70 70 69 70 69 68 68 67 67 67 69 70 70 71 71 73 73 73 73 73 74 74 73 74 73 73 73 72 72 72 72 72 74 73 72
15 16 16 23 24 22 20 18 21 24 17 23 33 32 35 34 30 44 45 48 49 53 54 55 56 56 56 56 57 58 57 57 58 57 58 59 59 60 60 60 61 62 63 64 65 65 67 68 69 69 68 69 70 71 71 70 69 69 70 70 71 71 70 70 70 70 70 69 69 68 67 67 68 69 70 70 71 71 72 74 73 73 73 73 73 72 73 72 73 72 71 72 71 72 72 73 73
16 15 20 15 20 17 23 20 15 15 16 21 27 37 40 39 35 42 41 45 45 51 53 54 55 55 55 56 57 58 58 58 58 58 58 59 59 60 60 60 60 62 64 64 65 67 68 69 69 68 69 69 70 71 71 70 70 69 70 70 70 71 71 71 71 71 71 70 69 68 67 67 67 68 70 71 71 70 71 72 73 72 73 73 73 72 73 73 72 72 71 71 71 72 72 71 71
16 17 14 25 20 23 18 18 23 18 16 20 18 33 29 40 40 42 39 44 48 51 52 53 54 55 55 56 56 57 58 58 58 58 58 58 59 59 60 61 61 63 64 65 66 67 68 69 70 69 70 70 70 71 71 71 71 71 70 71 71 71 71 71 71 71 71 71 70 69 68 66 66 68 69 69 69 70 70 71 71 71 71 72 72 72 72 72 72 72 71 71 71 72 71 71 71
15 13 14 19 23 25 18 22 18 18 23 22 24 21 28 34 43 44 43 44 48 51 52 53 54 56 56 56 56 57 58 58 59 58 59 58 58 59 60 61 62 64 65 66 67 67 68 69 70 70 70 70 71 71 71 71 71 72 71 70 70 71 71 71 71 71 71 71 71 71 69 68 69 67 68 68 68 69 70 71 71 72 71 72 72 72 72 72 72 72 72 72 72 72 71 71 72
12 12 11 11 13 16 15 17 20 22 18 16 22 18 29 35 44 48 46 46 50 52 52 53 54 55 56 57 57 58 58 58 59 59 59 59 60 60 61 62 64 65 66 66 66 67 68 69 70 70 70 70 71 71 71 71 71 71 71 70 70 71 71 71 71 71 71 71 70 71 71 70 69 69 68 67 68 68 69 70 70 71 71 71 72 72 71 72 72 72 72 71 71 72 72 72 71